• Join FlightAware (Why Join?)
  • Login
  • US Flag 
05:07PM EDT


 

Airport Tracker/Info


-or-


 

Live Flight TrackerFlight Track Log ✈ UPS1214 ✈ 11-May-2013 ✈ KSDF - KBWI

Flight Track Log - Related Links

Times and Time Zones

All times are in EDT time to prevent confusion due to time zone crossing. See the UPS1214 flight status page for this flight to view local times or setup timezone preferences in your user account.

Time Position Orientation Groundspeed Altitude Reporting Facility
EDT Latitude Longitude Course Direction KTS MPH feet Rate Location/Type
05:39AM 38.2180 -85.7400 348° North 198 228 2,600  Level FlightAware
05:40AM 38.2450 -85.7490 345° North 234 269 3,500 2,220 Climbing FlightAware
05:40AM 38.2540 -85.7500 355° North 246 283 3,900 2,760 Climbing FlightAware
05:40AM 38.2780 -85.7400 18° North 268 308 4,900 2,520 Climbing FlightAware
05:40AM 38.2910 -85.7230 46° Northeast 296 341 5,400 2,700 Climbing FlightAware
05:41AM 38.3000 -85.6810 75° East 308 354 6,700 3,240 Climbing FlightAware
05:41AM 38.2920 -85.6250 100° East 312 359 8,400 3,300 Climbing FlightAware
05:42AM 38.2770 -85.5740 111° Southeast 317 365 10,000 2,400 Climbing FlightAware
05:42AM 38.2560 -85.4960 109° East 364 419 11,200 2,220 Climbing FlightAware
05:43AM 38.2600 -85.4120 87° East 400 460 13,000 2,220 Climbing FlightAware
05:44AM 38.2970 -85.2820 70° East 408 470 14,900 3,720 Climbing FlightAware
05:45AM 38.3240 -85.1740 72° East 443 510 19,200 4,920 Climbing FlightAware
05:45AM 38.3480 -85.0770 72° East 450 518 21,500 3,240 Climbing FlightAware
05:46AM 38.3790 -84.9580 72° East 464 534 23,800 1,920 Climbing FlightAware
05:47AM 38.4140 -84.8220 72° East 474 545 24,700 540 Climbing FlightAware
05:48AM 38.4370 -84.7320 72° East 474 545 24,700  Level FlightAware
05:48AM 38.4600 -84.6410 72° East 474 545 24,700  Level FlightAware
05:49AM 38.4830 -84.5510 72° East 474 545 24,700  Level FlightAware
05:50AM 38.5060 -84.4600 72° East 474 545 24,700  Level FlightAware
05:50AM 38.5290 -84.3700 72° East 474 545 24,700 1,620 Level FlightAware
05:56AM 38.7960 -83.2750 72° East 506 582 35,000 1,620 Climbing FlightAware
05:57AM 38.8230 -83.1650 72° East 506 582 35,000  Level FlightAware
05:58AM 38.8650 -82.9870 73° East 508 585 35,000  Level FlightAware
05:58AM 38.8970 -82.8480 73° East 509 586 35,000  Level FlightAware
05:59AM 38.9240 -82.7340 73° East 511 588 35,000  Level FlightAware
06:00AM 38.9530 -82.6100 73° East 511 588 35,000  Level FlightAware
06:01AM 38.9800 -82.4960 73° East 512 589 35,000  Level FlightAware
06:01AM 39.0080 -82.3750 73° East 512 589 35,000  Level FlightAware
06:02AM 39.0360 -82.2500 74° East 513 590 35,000  Level FlightAware
06:03AM 39.0660 -82.1220 73° East 514 592 35,000  Level FlightAware
06:03AM 39.0930 -82.0040 74° East 514 592 35,000  Level FlightAware
06:04AM 39.1190 -81.8870 74° East 515 593 35,000  Level FlightAware
06:05AM 39.1520 -81.7420 74° East 515 593 35,000  Level FlightAware
06:05AM 39.1790 -81.6210 74° East 517 595 35,000  Level FlightAware
06:06AM 39.2090 -81.4850 74° East 517 595 35,000  Level FlightAware
06:07AM 39.2310 -81.3860 74° East 517 595 35,000  Level FlightAware
06:08AM 39.2640 -81.2370 74° East 518 596 35,000  Level FlightAware
06:08AM 39.2890 -81.1210 74° East 517 595 35,000  Level FlightAware
06:09AM 39.3160 -80.9990 74° East 515 593 35,000  Level FlightAware
06:10AM 39.3450 -80.8640 74° East 513 590 35,000  Level FlightAware
06:10AM 39.3700 -80.7460 75° East 510 587 35,000 -420 Level FlightAware
06:11AM 39.3850 -80.6350 80° East 502 578 34,500 -600 Descending FlightAware
06:12AM 39.3890 -80.4650 88° East 499 574 34,000 -1,140 Descending FlightAware
06:12AM 39.3900 -80.4028 88° East 500 575 33,000 -1,560 Descending Indianapolis Center
06:13AM 39.3964 -80.3614 79° East 500 575 33,000  Level Washington Center
06:14AM 39.3947 -80.1869 91° East 495 570 33,000 -120 Level Washington Center
06:15AM 39.3972 -80.0122 89° East 495 570 32,800 -1,380 Descending Washington Center
06:16AM 39.3972 -79.8378 90° East 495 570 30,400 -2,700 Descending Washington Center
06:17AM 39.3997 -79.6419 89° East 495 570 27,400 -2,640 Descending Washington Center
06:18AM 39.3992 -79.4672 90° East 495 570 25,200 -1,260 Descending Washington Center
06:19AM 39.4006 -79.2928 89° East 490 564 25,000 -120 Descending Washington Center
06:20AM 39.3969 -79.1339 92° East 485 558 25,000 -120 Level Washington Center
06:21AM 39.3978 -78.9647 90° East 480 552 24,800 -1,140 Descending Washington Center
06:22AM 39.3958 -78.8008 91° East 475 547 22,800 -2,040 Descending Washington Center
06:23AM 39.3939 -78.6369 91° East 465 535 20,800 -1,920 Descending Washington Center
06:24AM 39.3936 -78.4786 90° East 452 520 18,900 -1,920 Descending Washington Center
06:25AM 39.3908 -78.3306 91° East 433 498 17,000 -1,200 Descending Washington Center
06:30AM 39.4360 -77.5350 91° East 330 380 11,100 -960 Descending FlightAware
06:31AM 39.4410 -77.4490 86° East 333 383 11,100  Level FlightAware
06:32AM 39.4300 -77.3750 101° East 292 336 11,100  Level FlightAware
06:32AM 39.4190 -77.3110 103° East 282 325 11,100  Level FlightAware
06:33AM 39.4050 -77.2330 103° East 281 323 11,100 -360 Level FlightAware
06:33AM 39.3900 -77.1990 120° Southeast 268 308 10,700 -1,800 Descending FlightAware
06:34AM 39.3660 -77.1600 129° Southeast 287 330 9,500 -2,220 Descending FlightAware
06:34AM 39.3430 -77.1250 130° Southeast 298 343 8,700 -1,680 Descending FlightAware
06:35AM 39.3160 -77.0870 133° Southeast 293 337 8,000 -1,740 Descending FlightAware
06:35AM 39.3020 -77.0670 132° Southeast 288 331 7,400 -2,580 Descending FlightAware
06:36AM 39.2790 -77.0340 132° Southeast 283 326 6,300 -2,340 Descending FlightAware
06:36AM 39.2540 -76.9990 133° Southeast 266 306 5,300 -1,320 Descending FlightAware
06:38AM 39.1830 -76.8400 120° Southeast 231 266 2,700 -1,140 Descending FlightAware
06:38AM 39.1830 -76.8340 90° East 232 267 2,600 -720 Descending FlightAware
06:39AM 39.1800 -76.7740 94° East 231 266 2,100 -900 Descending FlightAware
06:40AM 39.1833 -76.7333 94° East 178 205 1,500 -120 Descending Potomac TRACON
06:41AM 39.1667 -76.6667 108° East 271 312 2,000 60 Climbing Potomac TRACON
06:46AM 39.0600 -76.5590 108° East 2,100  Climbing FlightAware
06:47AM 39.0667 -76.5833 108° East 169 194 2,000 -480 Descending Potomac TRACON
06:48AM 39.1167 -76.6167 333° Northwest 145 167 1,500 -660 Descending Potomac TRACON
06:49AM 39.1500 -76.6500 322° Northwest 152 175 700 -840 Descending Potomac TRACON